time_stamp(utc),avg(mph),gust(mph),direction(deg),12m_air_temp(f),sonic_u(cm/s),sonic_v(cm/s),sonic_w(cm/s),pressure,2m_air_temp(f),pyranometer(W/m^2)
"2022-04-21 00:04:15+00",6.4,7.4,,,-82,-260,-10,1029.97,51.2,0
"2022-04-21 00:09:15+00",6.3,7.3,,,-42,-254,-12,1030,51.1,0
"2022-04-21 00:14:15+00",6.2,6.2,,,-130,-241,-1,1030.02,50.8,0
"2022-04-21 00:19:15+00",6.2,7.2,,,-101,-241,-8,1030.04,50.8,0
"2022-04-21 00:24:15+00",6.9,7.9,,,-96,-274,-7,1030.12,51.1,0
"2022-04-21 00:29:15+00",4.7,5.7,,54.7,-190,-118,-2,1030.06,51,0
"2022-04-21 00:34:15+00",6.4,7.4,,,-184,-207,4,1030.17,50.4,0
"2022-04-21 00:39:15+00",6.4,7.4,,,-256,-102,-7,1030.2,50,0
"2022-04-21 00:44:15+00",6.2,6.2,,,-236,-89,6,1030.22,49.6,0
"2022-04-21 00:49:15+00",5.2,5.2,,,-213,-52,-1,1030.31,49.2,0
"2022-04-21 00:54:15+00",4.4,4.4,,,-138,-63,0,1030.29,48.9,0
"2022-04-21 00:59:15+00",10.9,12.9,,53.2,-331,-365,16,1030.36,48.9,0
"2022-04-21 01:04:15+00",12.9,13.9,,,-404,-394,14,1030.36,49,0
"2022-04-21 01:09:15+00",8.8,9.8,,,-258,-302,13,1030.46,49.2,0
"2022-04-21 01:14:15+00",10.6,12.6,,,-331,-330,14,1030.56,49.1,0
"2022-04-21 01:19:15+00",11.1,12.1,,,-358,-345,21,1030.44,49.1,0
"2022-04-21 01:24:15+00",11.3,13.3,,,-359,-335,2,1030.52,49,0
"2022-04-21 01:29:15+00",13.0,15.0,,,-455,-370,6,1030.6,49,0
"2022-04-21 01:34:15+00",11.6,12.6,,,-423,-304,19,1030.51,48.9,0
"2022-04-21 01:39:15+00",10.8,11.8,,49.9,-420,-280,11,1030.53,48.8,0
"2022-04-21 01:44:15+00",9.4,10.4,,,-366,-241,17,1030.52,48.8,0
"2022-04-21 01:49:15+00",11.5,13.5,,,-384,-322,18,1030.62,48.7,0
"2022-04-21 01:54:15+00",10.7,11.7,,,-371,-295,6,1030.8,48.7,0
"2022-04-21 01:59:15+00",8.8,9.8,,,-339,-227,11,1030.84,48.6,0
"2022-04-21 02:04:15+00",9.8,10.8,,,-361,-259,10,1030.9,48.4,0
"2022-04-21 02:09:15+00",8.1,9.1,,,-288,-219,11,1030.86,48.2,0
"2022-04-21 02:14:15+00",9.7,10.7,,49.7,-357,-250,14,1030.82,48.1,0
"2022-04-21 02:19:15+00",8.8,9.8,,,-315,-241,9,1031.03,47.9,0
"2022-04-21 02:24:15+00",9.7,10.7,,,-296,-294,5,1031.21,47.8,0
"2022-04-21 02:29:15+00",10.0,11.0,,,-304,-315,13,1031.15,47.9,0
"2022-04-21 02:34:15+00",11.9,14.9,,,-421,-333,-5,1031.23,47.9,0
"2022-04-21 02:39:15+00",11.6,12.6,,,-424,-316,12,1031.16,47.9,0
"2022-04-21 02:44:15+00",11.4,13.4,,,-395,-326,14,1031.18,47.8,0
"2022-04-21 02:49:15+00",9.1,10.1,,,-328,-237,15,1031.09,47.8,0
"2022-04-21 02:54:15+00",9.9,10.9,,,-397,-258,25,1031.09,47.5,0
"2022-04-21 02:59:15+00",10.6,12.6,,,-363,-301,8,1031.1,47.4,0
"2022-04-21 03:04:15+00",8.6,10.6,,,-318,-229,13,1031.25,47.3,0
"2022-04-21 03:09:15+00",9.6,11.6,,,-338,-265,11,1031.18,47.2,0
"2022-04-21 03:14:15+00",9.0,11.0,,48.3,-345,-236,8,1031.21,47,0
"2022-04-21 03:19:15+00",7.3,9.3,,,-198,-261,1,1031.22,46.9,0
"2022-04-21 03:24:15+00",9.9,10.9,,,-198,-395,-3,1031.37,46.7,0
"2022-04-21 03:29:15+00",7.3,8.3,,,-175,-279,-1,1031.36,46.7,0
"2022-04-21 03:34:15+00",6.8,7.8,,,-197,-238,5,1031.33,46.6,0
"2022-04-21 03:39:15+00",6.4,7.4,,,-179,-231,1,1031.38,46.4,0
"2022-04-21 03:44:15+00",5.1,6.1,,47.4,0,-211,-4,1031.53,46.1,0
"2022-04-21 03:49:15+00",3.2,4.2,,47,71,-107,-9,1031.39,45.6,0
"2022-04-21 03:54:15+00",5.2,5.2,,46.8,-63,-208,-4,1031.53,45.2,0
"2022-04-21 03:59:15+00",6.2,6.2,,,-14,-259,-6,1031.5,45.3,0
"2022-04-21 04:04:15+00",5.7,5.7,,,-14,-237,-4,1031.48,45.4,0
"2022-04-21 04:09:15+00",4.8,4.8,,,-53,-188,-7,1031.49,45.5,0
"2022-04-21 04:14:15+00",6.0,7.0,,,-64,-240,-7,1031.57,45.4,0
"2022-04-21 04:19:15+00",5.3,6.3,,,-51,-213,-5,1031.64,45.5,0
"2022-04-21 04:24:15+00",5.5,5.5,,,-66,-218,-6,1031.67,45.4,0
"2022-04-21 04:29:15+00",4.4,4.4,,,-126,-152,2,1031.6,45,0
"2022-04-21 04:34:15+00",3.9,4.9,,47,-58,-145,-6,1031.56,44.8,0
"2022-04-21 04:39:15+00",5.7,6.7,,,-51,-231,-12,1031.46,45,0
"2022-04-21 04:44:15+00",5.2,6.2,,,-3,-216,-2,1031.52,45.3,0
"2022-04-21 04:49:15+00",6.7,6.7,,,-52,-273,-5,1031.48,45.4,0
"2022-04-21 04:54:15+00",7.7,9.7,,,-32,-318,-12,1031.43,45.7,0
"2022-04-21 04:59:15+00",7.3,9.3,,,-73,-317,-9,1031.35,45.8,0
"2022-04-21 05:04:15+00",7.5,8.5,,,-89,-304,-6,1031.24,45.7,0
"2022-04-21 05:09:15+00",7.4,8.4,,,-98,-300,-1,1031.27,45.7,0
"2022-04-21 05:14:15+00",6.6,8.6,,,-38,-279,-5,1031.24,45.9,0
"2022-04-21 05:19:15+00",6.8,8.8,,,-52,-280,-7,1031.18,46.1,0
"2022-04-21 05:24:15+00",6.6,7.6,,,-50,-271,-3,1031.07,46.2,0
"2022-04-21 05:29:15+00",7.0,9.0,,,-50,-292,1,1031.07,46.2,0
"2022-04-21 05:34:15+00",7.9,8.9,,,-58,-326,-8,1031.1,46.1,0
"2022-04-21 05:39:15+00",7.0,8.0,,,-11,-293,-9,1031.12,46.2,0
"2022-04-21 05:44:15+00",7.9,8.9,,,-20,-339,-7,1030.94,46.2,0
"2022-04-21 05:49:15+00",8.3,10.3,,,-19,-348,-15,1030.89,46.1,0
"2022-04-21 05:54:15+00",7.0,9.0,,,-48,-285,-1,1030.93,46.1,0
"2022-04-21 05:59:15+00",8.2,10.2,,,-64,-344,-7,1030.99,46.1,0
"2022-04-21 06:04:15+00",8.8,9.8,,,-95,-365,-9,1030.92,45.9,0
"2022-04-21 06:09:15+00",8.3,10.3,,,-103,-341,-1,1030.98,45.9,0
"2022-04-21 06:14:15+00",8.2,9.2,,,-179,-325,12,1031,46,0
"2022-04-21 06:19:15+00",9.2,10.2,,,-149,-369,0,1030.95,46.1,0
"2022-04-21 06:24:15+00",9.0,10.0,,,-174,-357,0,1030.92,46.1,0
"2022-04-21 06:29:15+00",8.9,9.9,,,-176,-353,5,1030.97,46.1,0
"2022-04-21 06:34:15+00",8.9,10.9,,,-250,-309,16,1030.95,46.2,0
"2022-04-21 06:39:15+00",9.1,11.1,,,-235,-340,0,1030.91,46.3,0
"2022-04-21 06:44:15+00",9.1,10.1,,,-222,-345,7,1030.91,46.3,0
"2022-04-21 06:49:15+00",9.1,10.1,,,-188,-361,-3,1030.94,46.3,0
"2022-04-21 06:54:15+00",8.4,9.4,,,-150,-333,1,1030.84,46.1,0
"2022-04-21 06:59:15+00",7.7,8.7,,,-107,-309,-3,1030.78,46,0
"2022-04-21 07:04:15+00",7.6,8.6,,,-184,-286,6,1030.84,45.9,0
"2022-04-21 07:09:15+00",7.7,8.7,,,-215,-290,4,1030.87,45.8,0
"2022-04-21 07:14:15+00",8.3,9.3,,,-196,-318,0,1030.94,45.7,0
"2022-04-21 07:19:15+00",8.7,9.7,,,-175,-344,-4,1030.93,45.7,0
"2022-04-21 07:24:15+00",7.8,8.8,,,-123,-317,-3,1030.84,45.6,0
"2022-04-21 07:29:15+00",8.4,9.4,,,-165,-332,2,1031.05,45.6,0
"2022-04-21 07:34:15+00",7.8,8.8,,,-110,-317,-4,1030.99,45.7,0
"2022-04-21 07:39:15+00",6.6,7.6,,,-70,-255,-7,1031.01,45.5,0
"2022-04-21 07:44:15+00",7.5,8.5,,,-29,-311,-3,1030.97,45.6,0
"2022-04-21 07:49:15+00",6.7,7.7,,,-46,-273,-2,1030.9,45.4,0
"2022-04-21 07:54:15+00",7.5,8.5,,,-76,-311,-8,1030.95,45.3,0
"2022-04-21 07:59:15+00",6.2,7.2,,,-73,-248,-2,1030.82,45,0
"2022-04-21 08:04:15+00",7.4,8.4,,,-113,-297,-6,1030.87,44.9,0
"2022-04-21 08:09:15+00",8.6,10.6,,,-127,-350,-1,1030.92,45,0
"2022-04-21 08:14:15+00",7.0,8.0,,,-66,-289,-2,1030.84,45.3,0
"2022-04-21 08:19:15+00",8.0,9.0,,,-74,-337,-8,1030.86,45.3,0
"2022-04-21 08:24:15+00",8.5,9.5,,,-138,-340,-5,1030.86,45.4,0
"2022-04-21 08:29:15+00",9.1,10.1,,,-163,-361,-2,1031.03,45.4,0
"2022-04-21 08:34:15+00",8.3,10.3,,,-229,-311,3,1031.09,45.5,0
"2022-04-21 08:39:15+00",9.5,10.5,,,-275,-336,5,1031.23,45.6,0
"2022-04-21 08:44:15+00",9.0,10.0,,,-262,-310,4,1031.28,45.8,0
"2022-04-21 08:49:15+00",8.4,9.4,,,-202,-331,-1,1031.29,45.8,0
"2022-04-21 08:54:15+00",8.8,9.8,,,-198,-344,3,1031.25,45.9,0
"2022-04-21 08:59:15+00",8.6,9.6,,,-246,-311,0,1031.38,45.9,0
"2022-04-21 09:04:15+00",8.6,9.6,,,-233,-312,2,1031.41,45.9,0
"2022-04-21 09:09:15+00",9.6,11.6,,,-287,-331,-1,1031.56,45.9,0
"2022-04-21 09:14:15+00",9.5,10.5,,,-284,-316,4,1031.74,46.1,0
"2022-04-21 09:19:15+00",9.8,10.8,,,-323,-282,19,1031.85,46.3,0
"2022-04-21 09:24:15+00",10.5,12.5,,,-362,-288,16,1031.92,46.4,0
"2022-04-21 09:29:15+00",10.2,11.2,,,-355,-283,8,1031.92,46.5,0
"2022-04-21 09:34:15+00",8.8,9.8,,,-313,-235,3,1031.95,46.6,0
"2022-04-21 09:39:15+00",9.6,11.6,,,-349,-267,24,1031.9,46.6,0
"2022-04-21 09:44:15+00",7.3,8.3,,,-308,-175,16,1031.89,46.4,0
"2022-04-21 09:49:15+00",7.9,8.9,,,-328,-203,12,1031.87,46.2,0
"2022-04-21 09:54:15+00",6.9,7.9,,,-264,-110,12,1031.97,46,0
"2022-04-21 09:59:15+00",6.2,7.2,,,-265,-153,9,1031.9,45.7,0
"2022-04-21 10:04:15+00",6.1,6.1,,,-217,-160,9,1032.08,45.5,0
"2022-04-21 10:09:15+00",5.5,6.5,,,-224,-137,8,1032.03,45.2,0
"2022-04-21 10:14:15+00",5.6,6.6,,,-213,-139,4,1032.05,44.9,0
"2022-04-21 10:19:15+00",4.5,4.5,,,-105,-162,4,1031.89,44.8,0
"2022-04-21 10:24:15+00",4.6,5.6,,,-74,-175,-3,1031.77,45.2,0
"2022-04-21 10:29:15+00",4.7,4.7,,,-17,-194,-2,1031.86,45.5,0
"2022-04-21 10:34:15+00",4.2,5.2,,,-46,-168,-4,1031.98,45.5,0
"2022-04-21 10:39:15+00",5.0,6.0,,,-39,-200,-3,1032.08,45.7,0
"2022-04-21 10:44:15+00",5.6,6.6,,,-27,-231,-5,1032.12,45.9,0
"2022-04-21 10:49:15+00",5.9,6.9,,,-48,-240,-7,1032.19,46,0
"2022-04-21 10:54:15+00",5.3,6.3,,,-49,-211,-8,1032.26,46.2,0
"2022-04-21 10:59:15+00",4.7,5.7,,,-45,-182,-7,1032.26,46.5,0
"2022-04-21 11:04:15+00",3.1,4.1,,,0,-114,7,1032.23,47.1,0
"2022-04-21 11:09:15+00",5.4,6.4,,,-35,-222,-1,1032.16,47.6,0.1
"2022-04-21 11:14:15+00",5.7,6.7,,,-30,-232,-5,1032.27,48.1,0
"2022-04-21 11:19:15+00",5.7,7.7,,,-30,-237,-10,1032.25,48.5,0
"2022-04-21 11:24:15+00",6.2,7.2,,,-28,-255,-2,1032.28,48.9,0.1
"2022-04-21 11:29:15+00",6.8,9.8,,,-57,-281,0,1032.28,49.3,0.1
"2022-04-21 11:34:15+00",7.1,10.1,,,-54,-300,3,1032.34,49.5,0
"2022-04-21 11:39:15+00",9.4,10.4,,,-130,-390,-3,1032.39,49.7,0
"2022-04-21 11:44:15+00",8.1,9.1,,,-152,-327,8,1032.43,49.7,0.3
"2022-04-21 11:49:15+00",10.4,11.4,,,-143,-425,-9,1032.51,49.8,0
"2022-04-21 11:54:15+00",9.4,11.4,,,-155,-386,3,1032.49,50.2,0
"2022-04-21 11:59:15+00",9.0,10.0,,,-124,-369,-3,1032.41,50.3,0
"2022-04-21 12:04:15+00",8.2,11.2,,,-83,-336,-3,1032.3,50.4,0
"2022-04-21 12:09:15+00",9.8,11.8,,,-88,-408,3,1032.34,50.8,0
"2022-04-21 12:14:15+00",6.6,9.6,,,-45,-277,4,1032.46,51.1,0.2
"2022-04-21 12:19:15+00",10.1,12.1,,,-132,-411,2,1032.53,51.3,17.1
"2022-04-21 12:24:15+00",8.4,11.4,,,-76,-344,17,1032.64,51.5,61.9
"2022-04-21 12:29:15+00",10.2,12.2,,,-166,-417,8,1032.56,51.7,99.8
"2022-04-21 12:34:15+00",10.5,12.5,,,-117,-437,-3,1032.51,51.9,142.1
"2022-04-21 12:39:15+00",10.7,13.7,,,-71,-456,-18,1032.58,52.2,176.4
"2022-04-21 12:44:15+00",7.6,10.6,,,-23,-328,1,1032.49,52.4,191.9
"2022-04-21 12:49:15+00",11.9,13.9,,,-43,-504,-10,1032.51,52.6,195.2
"2022-04-21 12:54:15+00",10.4,13.4,,,-91,-433,-12,1032.56,52.7,205.6
"2022-04-21 12:59:15+00",10.7,12.7,,,-83,-447,-8,1032.48,52.7,210.7
"2022-04-21 13:04:15+00",9.5,12.5,,,-38,-405,2,1032.53,52.9,209.9
"2022-04-21 13:09:15+00",13.5,16.5,,,-135,-575,-14,1032.64,52.7,231.5
"2022-04-21 13:14:15+00",10.7,13.7,,52,-102,-446,2,1032.81,53.2,230.4
"2022-04-21 13:19:15+00",11.2,14.2,,,-111,-463,-8,1032.78,53.3,255.1
"2022-04-21 13:24:15+00",10.7,14.7,,,-92,-449,14,1032.7,53.5,245.1
"2022-04-21 13:29:15+00",10.1,14.1,,,-129,-425,44,1032.62,53.5,265
"2022-04-21 13:34:15+00",12.5,15.5,,52.6,-150,-534,8,1032.55,53.8,273.3
"2022-04-21 13:39:15+00",10.6,15.6,,,-107,-439,20,1032.6,54,280.8
"2022-04-21 13:44:15+00",13.5,17.5,,,-71,-570,-24,1032.63,54.1,277.2
"2022-04-21 13:49:15+00",15.3,17.3,,,-197,-640,-13,1032.79,54,305.8
"2022-04-21 13:54:15+00",14.9,16.9,,,-213,-605,-16,1032.89,54,300.9
"2022-04-21 13:59:15+00",12.0,16.0,,,-106,-508,11,1032.9,54.1,310.2
"2022-04-21 14:04:15+00",13.9,15.9,,,-252,-570,23,1032.96,54.4,303.4
"2022-04-21 14:09:15+00",17.4,19.4,,,-352,-693,-16,1032.93,54.3,294.1
"2022-04-21 14:14:15+00",13.3,17.3,,,-107,-580,-8,1032.7,54.4,293.3
"2022-04-21 14:19:15+00",14.5,17.5,,,-217,-598,3,1032.66,54.7,289.9
"2022-04-21 14:24:15+00",11.5,14.5,,,14,-475,-3,1032.59,54.7,352.4
"2022-04-21 14:29:15+00",12.1,17.1,,,67,-532,-5,1032.42,54.8,345.3
"2022-04-21 14:34:15+00",12.4,15.4,,,161,-518,11,1032.35,54.6,345
"2022-04-21 14:39:15+00",14.7,17.7,,,185,-607,-12,1032.19,53.8,364.2
"2022-04-21 14:44:15+00",11.7,15.7,,,4,-478,-11,1032.27,53.6,287.6
"2022-04-21 14:49:15+00",8.6,10.6,,,-32,-372,1,1032.48,53.8,255.2
"2022-04-21 14:54:15+00",14.5,17.5,,,-141,-606,-7,1032.5,54,365.9
"2022-04-21 14:59:15+00",12.4,16.4,,,-122,-520,1,1032.57,54.9,389.8
"2022-04-21 15:04:15+00",12.7,16.7,,,-73,-546,16,1032.54,54.7,407.8
"2022-04-21 15:09:15+00",12.1,17.1,,,-99,-514,7,1032.6,54.7,378.1
"2022-04-21 15:14:15+00",13.7,21.7,,,-172,-569,19,1032.61,55.1,335.9
"2022-04-21 15:19:15+00",15.4,18.4,,,-119,-650,-4,1032.53,55.1,300.5
"2022-04-21 15:24:15+00",14.5,18.5,,,-57,-607,-29,1032.43,54.7,427.8
"2022-04-21 15:29:15+00",12.1,15.1,,,123,-513,20,1032.48,54.6,420.2
"2022-04-21 15:34:15+00",14.4,18.4,,,56,-618,-27,1032.46,54.5,455.5
"2022-04-21 15:39:15+00",10.8,14.8,,,18,-437,38,1032.46,55.1,479.5
"2022-04-21 15:44:15+00",11.2,16.2,,,21,-464,19,1032.33,55.3,444.7
"2022-04-21 15:49:15+00",11.5,14.5,,,45,-480,-1,1032.35,55.3,412.8
"2022-04-21 15:54:15+00",12.2,17.2,,,79,-511,8,1032.38,54.8,329.5
"2022-04-21 15:59:15+00",12.8,15.8,,,-154,-536,29,1032.49,54.9,360.9
"2022-04-21 16:04:15+00",15.9,17.9,,,-192,-660,-5,1032.31,55,339.1
"2022-04-21 16:09:15+00",13.7,17.7,,,-16,-597,-34,1032.18,55.2,335.5
"2022-04-21 16:14:15+00",14.7,17.7,,,-95,-632,0,1032.3,55.1,213
"2022-04-21 16:19:15+00",15.8,17.8,,,-243,-650,1,1032.3,54.7,219.5
"2022-04-21 16:24:15+00",14.3,21.3,,,-175,-596,4,1032.35,54.4,201.5
"2022-04-21 16:29:15+00",15.1,18.1,,,-170,-633,1,1032.19,54.6,201.7
"2022-04-21 16:34:15+00",17.2,20.2,,,-290,-707,9,1032.18,54.6,221.7
"2022-04-21 16:39:15+00",12.6,17.6,,,-113,-547,26,1032.17,54.8,264.5
"2022-04-21 16:44:15+00",16.5,21.5,,,-130,-709,-13,1032.17,54.3,214.5
"2022-04-21 16:49:15+00",14.9,18.9,,53.1,-95,-643,-6,1032.17,54.3,301.2
"2022-04-21 16:54:15+00",14.5,18.5,,,-102,-616,8,1032.16,54.8,323.3
"2022-04-21 16:59:15+00",18.7,22.7,,,-202,-787,-24,1032.01,54.7,250.2
"2022-04-21 17:04:15+00",12.1,17.1,,,-91,-506,8,1031.95,54.6,235.4
"2022-04-21 17:09:15+00",8.4,13.4,,,-29,-349,38,1031.93,55,218.8
"2022-04-21 17:14:15+00",16.8,19.8,,,-133,-713,-23,1031.84,54.5,138
"2022-04-21 17:19:15+00",12.1,16.1,,,25,-522,-1,1031.88,54,139.4
"2022-04-21 17:24:15+00",12.9,17.9,,,38,-550,-33,1031.83,53.5,158.9
"2022-04-21 17:29:15+00",14.4,17.4,,,75,-599,-23,1031.64,53,292.2
"2022-04-21 17:34:15+00",14.0,18.0,,,128,-595,-12,1031.48,53.6,284.7
"2022-04-21 17:39:15+00",15.3,18.3,,,128,-646,-30,1031.32,53.8,493.4
"2022-04-21 17:44:15+00",15.2,17.2,,,153,-672,-14,1031.23,53.8,354.7
"2022-04-21 17:49:15+00",12.8,15.8,,,83,-543,-6,1031.31,53.9,531.4
"2022-04-21 17:54:15+00",15.2,18.2,,,127,-627,0,1031.14,54,444
"2022-04-21 17:59:15+00",13.4,16.4,,,118,-567,-22,1031.08,53.9,589.8
"2022-04-21 18:04:15+00",16.5,18.5,,,183,-682,-30,1031,54.1,442.1
"2022-04-21 18:09:15+00",16.1,19.1,,,152,-654,-25,1030.88,53.6,419.9
"2022-04-21 18:14:15+00",15.4,18.4,,,154,-643,-3,1030.82,53.2,160.5
"2022-04-21 18:19:15+00",11.1,15.1,,,67,-458,7,1030.79,52.9,294.6
"2022-04-21 18:24:15+00",16.4,19.4,,,103,-690,-31,1030.66,52.9,171.2
"2022-04-21 18:29:15+00",15.1,18.1,,,114,-643,-34,1030.62,52.7,343.7
"2022-04-21 18:34:15+00",9.7,13.7,,,54,-386,40,1030.59,53.8,388.2
"2022-04-21 18:39:15+00",17.1,21.1,,,127,-708,-25,1030.4,53.4,258
"2022-04-21 18:44:15+00",15.8,18.8,,,142,-641,-6,1030.24,53.2,256.5
"2022-04-21 18:49:15+00",15.1,19.1,,51.8,105,-636,-5,1030.25,53.1,267.8
"2022-04-21 18:54:15+00",15.0,18.0,,,95,-638,-4,1030.15,53,232.6
"2022-04-21 18:59:15+00",12.6,16.6,,,40,-522,-11,1030.16,52.6,186.3
"2022-04-21 19:04:15+00",14.5,18.5,,51.8,106,-594,10,1030.03,52.9,243.7
"2022-04-21 19:09:15+00",15.5,20.5,,51.7,149,-664,0,1029.94,52.9,156.5
"2022-04-21 19:14:15+00",14.4,18.4,,,59,-597,1,1029.87,52.9,193.7
"2022-04-21 19:19:15+00",11.8,14.8,,,92,-488,2,1029.81,53.1,179.2
"2022-04-21 19:24:15+00",14.6,18.6,,51.8,73,-617,-21,1029.81,53.2,224.7
"2022-04-21 19:29:15+00",15.4,18.4,,,95,-658,-27,1029.84,52.7,162.7
"2022-04-21 19:34:15+00",13.5,17.5,,,75,-551,4,1029.82,53,199.5
"2022-04-21 19:39:15+00",10.5,13.5,,,22,-453,-11,1029.73,53.2,246.7
"2022-04-21 19:44:15+00",12.4,16.4,,52.2,39,-536,3,1029.64,53.3,159.4
"2022-04-21 19:49:15+00",14.2,16.2,,,87,-586,4,1029.51,52.8,115.5
"2022-04-21 19:54:15+00",14.6,19.6,,,113,-602,6,1029.21,52.9,117.5
"2022-04-21 19:59:15+00",15.2,20.2,,51.1,120,-604,-16,1029.01,52.1,75.6
"2022-04-21 20:04:15+00",16.5,20.5,,,101,-698,2,1028.89,52.1,81.3
"2022-04-21 20:09:15+00",15.8,19.8,,,77,-676,-18,1028.86,52.1,86
"2022-04-21 20:14:15+00",15.4,20.4,,,159,-638,-2,1028.69,51.9,84.5
"2022-04-21 20:19:15+00",16.3,20.3,,51.1,141,-674,-7,1028.72,51.8,84.6
"2022-04-21 20:24:15+00",15.5,19.5,,,118,-667,-3,1028.54,52,75.2
"2022-04-21 20:29:15+00",14.5,19.5,,,124,-605,-3,1028.41,52.2,67.3
"2022-04-21 20:34:15+00",14.6,18.6,,,33,-616,-14,1028.48,51.9,61.6
"2022-04-21 20:39:15+00",15.0,19.0,,,64,-622,-28,1028.33,51.9,45.4
"2022-04-21 20:44:15+00",18.4,22.4,,,147,-800,-26,1028.07,51.9,37.2
"2022-04-21 20:49:15+00",16.6,20.6,,,121,-704,-10,1027.95,51.8,28.3
"2022-04-21 20:54:15+00",17.6,20.6,,,187,-757,-26,1027.9,51.9,19.6
"2022-04-21 20:59:15+00",13.0,17.0,,,101,-525,5,1028.04,51.8,15.3
"2022-04-21 21:04:15+00",10.2,16.2,,,14,-434,7,1028.28,52,74.6
"2022-04-21 21:09:15+00",13.5,18.5,,,50,-584,-24,1028.26,52.3,67
"2022-04-21 21:14:15+00",13.0,17.0,,,-21,-539,-32,1028.3,52.5,55.4
"2022-04-21 21:19:15+00",11.3,16.3,,,-27,-480,12,1028.26,52.5,51.8
"2022-04-21 21:24:15+00",12.3,20.3,,,29,-518,1,1027.88,52.6,42.9
"2022-04-21 21:29:15+00",14.8,18.8,,,-35,-633,-19,1028.01,52.5,60.9
"2022-04-21 21:34:15+00",14.8,19.8,,,15,-625,-34,1027.9,52.8,93.1
"2022-04-21 21:39:15+00",11.7,16.7,,,-49,-499,-3,1027.82,53.1,64.9
"2022-04-21 21:44:15+00",15.2,20.2,,,-21,-645,13,1027.58,53,26
"2022-04-21 21:49:15+00",10.8,13.8,,,-88,-468,22,1027.73,52.9,17.2
"2022-04-21 21:54:15+00",16.6,20.6,,,-142,-711,-12,1027.71,52.8,6.7
"2022-04-21 21:59:15+00",17.1,22.1,,,-133,-735,-18,1027.57,52.7,0.9
"2022-04-21 22:04:15+00",12.7,17.7,,,-87,-556,6,1027.47,52.6,0
"2022-04-21 22:09:15+00",12.9,17.9,,,-85,-539,18,1027.37,52.5,0
"2022-04-21 22:14:15+00",10.5,15.5,,,-74,-420,31,1027.3,52.5,0
"2022-04-21 22:19:15+00",14.2,18.2,,,-187,-618,-10,1027.28,52.5,0
"2022-04-21 22:24:15+00",16.6,20.6,,,-278,-674,30,1027.34,52.4,0.1
"2022-04-21 22:29:15+00",16.8,19.8,,,-276,-692,3,1027.36,52.5,0.1
"2022-04-21 22:34:15+00",15.2,18.2,,,-291,-611,18,1027.43,52.8,52.6
"2022-04-21 22:39:15+00",14.4,19.4,,,-260,-589,4,1027.5,53,0.2
"2022-04-21 22:44:15+00",15.5,18.5,,,-291,-617,-2,1027.6,52.9,1.1
"2022-04-21 22:49:15+00",17.0,21.0,,,-397,-675,2,1027.56,52.8,0
"2022-04-21 22:54:15+00",12.4,14.4,,,-273,-496,29,1027.63,52.8,0
"2022-04-21 22:59:15+00",16.5,19.5,,,-404,-586,0,1027.63,52.8,0
"2022-04-21 23:04:15+00",14.0,17.0,,,-338,-552,7,1027.74,52.8,0
"2022-04-21 23:09:15+00",16.4,19.4,,,-340,-658,-6,1027.72,52.8,0
"2022-04-21 23:14:15+00",15.1,17.1,,,-314,-594,1,1027.68,52.7,0
"2022-04-21 23:19:15+00",14.9,17.9,,,-290,-603,2,1027.68,52.7,0
"2022-04-21 23:24:15+00",14.1,16.1,,,-255,-574,10,1027.64,52.6,0
"2022-04-21 23:29:15+00",17.2,19.2,,,-341,-698,-5,1027.65,52.6,0
"2022-04-21 23:34:15+00",15.3,19.3,,,-263,-632,4,1027.67,52.6,0
"2022-04-21 23:39:15+00",14.5,18.5,,,-238,-584,7,1027.69,52.5,0
"2022-04-21 23:44:15+00",17.8,19.8,,,-296,-713,-10,1027.72,52.5,0
"2022-04-21 23:49:15+00",14.5,18.5,,,-193,-616,0,1027.65,52.5,0
"2022-04-21 23:54:15+00",16.1,19.1,,,-204,-659,-6,1027.62,52.4,0
"2022-04-21 23:59:15+00",15.7,17.7,,,-223,-648,-5,1027.63,52.3,0
